FENGYUN 1C DEB, 32457

Orbit data source: Space-Track

FENGYUN 1C DEB, 32457 is space debris in SSO originally from a launch on Mon, 10 May 1999 UTC launched from the Taiyaun Space Center, China (TSC). Fengyun 1C debris stems from the Chinese weather satellite Fengyun-1C, which was intentionally destroyed by a Chinese anti-satellite missile in 2007. This event dramatically increased the amount of space debris, with thousands of trackable fragments posing hazards to satellites and human spaceflight. The Fengyun 1C debris cloud has become a focal point in discussions about space sustainability and the need for international regulations to prevent the creation of new debris.

Loading next visibility...
Identifier
32457, 1999-025DBV
Orbit
SSO
Country
Flag of CNCN / PRC
Related business
Manufacturer
Unknown
Mission
Spacecraft
Bus & Motor
Unknown
Mass
Unknown
Launch date (UTC)
1999-05-10 (27 years ago)
Launch vehicle
Unknown
Launch site
Taiyaun Space Center, China (TSC)
Object type
Payload
Rocket body
Debris
Shape & HBR
Unknown shape, 0.1 m
Radar Cross Section
Small (<0.1 m²)

Expand to show TLE details & history
Last TLE update: 1 month ago

TLE from 1 month ago
0 FENGYUN 1C DEB
1 32457U 99025DBV 26109.33346485  .00000642  00000-0  91795-3 0  9996
2 32457 100.1011 151.9788 0416068  25.1642 336.9137 13.29453548556463
Epoch: 2026-04-19T08:00Z
TLE epoch observation values (Epoch: 2026-04-19T08:00:11.363Z)
Latitude
0.00005°
Longitude
-175.50801°
Altitude
865.551 km
Speed
7.559 km/s
True Right ascension
10h 07m 54s
True Declination
0° 00' 00"
Sunlit
Object was in full shadow at epoch
Visualization orbit readout
Latitude
Unknown
Longitude
Unknown
Altitude
Unknown
Speed
Unknown
Apparent Right ascension
Unknown
Apparent Declination
Unknown
Sunlit
N/A
Visualization observer readout
Local Sidereal Time
18:57:49
Azimuth
Unknown
Elevation
Unknown
Doppler factor
Unknown
Orbital elements
Apogee altitude
1,459.23 km
Perigee altitude
833.106 km
Semi-major axis
7,524.305 km
Eccentricity
0.04161
Inclination
100.1011°
RAAN
151.9788°
Arg. of periapsis
25.1642°
True anomaly
334.95082°
Mean anomaly
336.9137°
Eccentric anomaly
335.94187°
Mean motion
3.3254 °/min
Orbital period
108.26 mins
BSTAR
0.00091795
Loading maneuver chart data...
Computing Atmospheric mass density...
Loading historical data...
Loading historical data...
Loading historical data...
Loading historical data...
Loading historical data...
Loading historical data...
Loading historical data...

Documentation

Showing up to 5 results
|